"2010-05-27 00:00:00",147340,9.49,161.2,7.281,0.589,18.04,107.6698,18.91,19.87,58.83,0,110.6,13.31,19.73,123.2
"2010-05-27 00:00:30",147341,8.42,158.3,7.863,0.489,18.23,107.6654,18.9,19.82,58.17,0,110.6,13.31,19.72,120.3
"2010-05-27 00:01:00",147342,8.08,156.1,4.615,0.407,18.23,107.6627,18.89,19.83,57.35,0,110.6,13.31,19.71,118.1
"2010-05-27 00:01:30",147343,8.98,153.9,5.034,0.751,18.2,107.6671,18.91,19.82,58.1,0,110.6,13.31,19.72,115.9
"2010-05-27 00:02:00",147344,9.75,156.4,6.996,0.767,18.37,107.6784,18.93,19.81,57.58,0,110.6,13.31,19.75,118.4
"2010-05-27 00:02:30",147345,11.18,158.4,1.289,0.298,18.6,107.682,18.94,19.83,55.21,0,110.6,13.31,19.76,120.4
"2010-05-27 00:03:00",147346,9.69,162.8,5.453,0.822,18.72,107.7033,19,19.86,53.25,0,110.6,13.31,19.82,124.8
"2010-05-27 00:03:30",147347,9.22,163.6,3.689,0.501,18.67,107.732,19.07,19.91,51.93,0,110.6,13.31,19.89,125.6
"2010-05-27 00:04:00",147348,8.96,162.1,2.961,0.72,18.33,107.7496,19.12,19.96,55.36,0,110.6,13.31,19.94,124.1
"2010-05-27 00:04:30",147349,7.578,155.6,4.375,0.302,18.16,107.7706,19.17,19.99,57.35,0,110.6,13.31,19.99,117.6
"2010-05-27 00:05:00",147350,8.87,160.3,5.432,0.932,18.51,107.7706,19.17,20.01,54.57,0,110.6,13.31,19.99,122.3
"2010-05-27 00:05:30",147351,8.64,152.5,3.374,0.623,18.25,107.7711,19.17,20.04,56.61,0,110.6,13.3,19.99,114.5
"2010-05-27 00:06:00",147352,7.937,155,4.116,1.068,18.32,107.7919,19.23,20.05,56.72,0,110.6,13.3,20.04,117.0
"2010-05-27 00:06:30",147353,5.778,170.6,9.16,0.257,18.47,107.8009,19.25,20.07,53.21,0,110.6,13.3,20.07,132.6
"2010-05-27 00:07:00",147354,7.015,151,5.182,0.701,18.24,107.8041,19.26,20.11,55.82,0,110.6,13.3,20.08,113.0
"2010-05-27 00:07:30",147355,6.598,152.6,4.56,0.416,18.29,107.8041,19.26,20.12,57.35,0,110.7,13.3,20.08,114.6
"2010-05-27 00:08:00",147356,5.243,161.1,5.866,0.674,18.26,107.8041,19.26,20.13,57.65,0,110.7,13.3,20.08,123.1
"2010-05-27 00:08:30",147357,7.115,152.5,6.674,0.363,18.3,107.8041,19.26,20.13,57.07,0,110.7,13.3,20.08,114.5
"2010-05-27 00:09:00",147358,7.54,162.2,4.193,0.568,18.43,107.8041,19.26,20.12,56.63,0,110.7,13.3,20.08,124.2
"2010-05-27 00:09:30",147359,7.702,154.8,6.047,0.742,18.28,107.8041,19.26,20.13,57,0,110.7,13.29,20.08,116.8
"2010-05-27 00:10:00",147360,7.586,152.7,5.069,0.429,18.21,107.8041,19.26,20.14,56.96,0,110.7,13.29,20.08,114.7
"2010-05-27 00:10:30",147361,8.17,152.8,2.391,0.461,18.04,107.7872,19.21,20.11,56.38,0,110.7,13.29,20.03,114.8
"2010-05-27 00:11:00",147362,7.701,153.6,5.397,0.191,18.19,107.7703,19.17,20.08,56.42,0,110.7,13.29,19.99,115.6
"2010-05-27 00:11:30",147363,6.998,153,5.5,0.335,18.23,107.7703,19.17,20.07,56.94,0,110.7,13.29,19.99,115.0
"2010-05-27 00:12:00",147364,7.314,161.3,6.429,0.382,18.33,107.7703,19.17,20.07,57.45,0,110.7,13.29,19.99,123.3
"2010-05-27 00:12:30",147365,8.69,157.1,3.959,1.002,18.26,107.7703,19.17,20.05,56.69,0,110.7,13.29,19.99,119.1
"2010-05-27 00:13:00",147366,9.97,156.3,3.717,0.494,18.27,107.7703,19.17,20.06,56.03,0,110.7,13.29,19.99,118.3
"2010-05-27 00:13:30",147367,9.48,155.1,5.196,0.499,18.32,107.7703,19.17,20.07,55.78,0,110.7,13.28,19.99,117.1
"2010-05-27 00:14:00",147368,9.58,156.5,3.542,0.564,18.38,107.7719,19.17,20.06,55.72,0,110.7,13.29,19.99,118.5
"2010-05-27 00:14:30",147369,9.89,160,2.914,0.605,18.65,107.7936,19.23,20.07,55.2,0,110.7,13.29,20.05,122.0
"2010-05-27 00:15:00",147370,10.19,167,1.675,0.324,18.65,107.8028,19.25,20.09,55.78,0,110.7,13.29,20.07,129.0
"2010-05-27 00:15:30",147371,9.19,157.9,6.462,0.559,18.45,107.8068,19.26,20.12,55.67,0,110.7,13.29,20.08,119.9
"2010-05-27 00:16:00",147372,9.07,156.2,6.727,0.431,18.46,107.8285,19.32,20.14,55.2,0,110.7,13.29,20.14,118.2
"2010-05-27 00:16:30",147373,9.32,156.4,3.214,0.628,18.34,107.8354,19.34,20.15,55.42,0,110.7,13.29,20.16,118.4
"2010-05-27 00:17:00",147374,10.65,162.6,2.55,0.544,18.68,107.8342,19.33,20.17,54.79,0,110.7,13.3,20.15,124.6
"2010-05-27 00:17:30",147375,10.85,162.7,3.644,0.631,18.56,107.842,19.35,20.2,54.38,0,110.7,13.29,20.17,124.7
"2010-05-27 00:18:00",147376,11.39,163.4,3.114,0.721,18.51,107.8669,19.42,20.22,54.56,0,110.7,13.29,20.24,125.4
"2010-05-27 00:18:30",147377,10.03,162.6,2.432,0.451,18.48,107.8662,19.42,20.24,54.55,0,110.7,13.29,20.24,124.6
"2010-05-27 00:19:00",147378,9.71,161.5,1.71,0.756,18.28,107.8649,19.41,20.26,54.8,0,110.7,13.29,20.23,123.5
"2010-05-27 00:19:30",147379,9.38,153.2,5.171,0.741,18.16,107.8643,19.41,20.28,55.28,0,110.7,13.29,20.23,115.2
"2010-05-27 00:20:00",147380,9.08,150,3.935,0.539,18.13,107.8601,19.4,20.27,56.02,0,110.7,13.29,20.22,112.0
"2010-05-27 00:20:30",147381,9.59,146.8,2.976,1.098,18.12,107.8552,19.39,20.28,57,0,110.7,13.29,20.21,108.8
"2010-05-27 00:21:00",147382,10.52,150.6,1.791,0.455,18.01,107.8495,19.37,20.28,56.3,0,110.7,13.29,20.19,112.6
"2010-05-27 00:21:30",147383,10.96,150.9,2.593,0.35,18.17,107.8193,19.3,20.26,56.36,0,110.7,13.29,20.12,112.9
"2010-05-27 00:22:00",147384,10.56,149.9,4.055,0.587,18.12,107.8051,19.26,20.25,56.82,0,110.7,13.29,20.08,111.9
"2010-05-27 00:22:30",147385,10.73,150.9,5.534,0.506,18.27,107.8051,19.26,20.24,57.14,0,110.7,13.29,20.08,112.9
"2010-05-27 00:23:00",147386,11.69,155.8,5.984,0.786,18.34,107.8036,19.26,20.22,57,0,110.7,13.29,20.08,117.8
"2010-05-27 00:23:30",147387,13.07,155.3,2.623,0.625,18.25,107.7878,19.22,20.19,56.41,0,110.7,13.29,20.03,117.3
"2010-05-27 00:24:00",147388,13.55,154.4,3.133,0.628,18.29,107.7697,19.17,20.18,56.6,0,110.7,13.29,19.99,116.4
"2010-05-27 00:24:30",147389,12.59,151.8,4.96,0.509,18.29,107.7689,19.17,20.15,56.21,0,110.7,13.29,19.99,113.8
"2010-05-27 00:25:00",147390,13.96,153.1,2.716,0.451,18.32,107.7669,19.16,20.14,56.2,0,110.7,13.29,19.98,115.1
"2010-05-27 00:25:30",147391,14.03,152.9,2.737,0.743,18.5,107.748,19.11,20.13,56.88,0,110.7,13.29,19.93,114.9
"2010-05-27 00:26:00",147392,14.13,151.7,4.075,0.491,18.55,107.7375,19.09,20.1,56.11,0,110.7,13.29,19.90,113.7
"2010-05-27 00:26:30",147393,13.32,153,2.126,0.348,18.52,107.7348,19.08,20.09,55.9,0,110.7,13.28,19.90,115.0
"2010-05-27 00:27:00",147394,13.34,153.5,1.921,0.512,18.38,107.7117,19.02,20.05,55.72,0,110.7,13.28,19.84,115.5
"2010-05-27 00:27:30",147395,15.36,153.3,2.271,0.362,18.39,107.7131,19.02,20.03,55.68,0,110.7,13.28,19.84,115.3
"2010-05-27 00:28:00",147396,15.44,156.4,1.571,0.552,18.47,107.7134,19.02,19.99,55.58,0,110.7,13.28,19.84,118.4
"2010-05-27 00:28:30",147397,15.64,157.9,1.122,0.288,18.52,107.7156,19.03,20,55.57,0,110.7,13.28,19.85,119.9
"2010-05-27 00:29:00",147398,14.54,164.1,3.65,0.547,19.09,107.7165,19.03,19.99,54.83,0,110.7,13.28,19.85,126.1
"2010-05-27 00:29:30",147399,13.85,162.1,2.854,0.437,18.74,107.7219,19.05,19.97,54.28,0,110.7,13.28,19.86,124.1
"2010-05-27 00:30:00",147400,15.15,158.4,2.008,0.388,18.33,107.7231,19.05,19.98,55.64,0,110.7,13.28,19.87,120.4
"2010-05-27 00:30:30",147401,15.52,157.8,1.078,0.236,18.41,107.725,19.05,19.99,55.55,0,110.7,13.28,19.87,119.8
"2010-05-27 00:31:00",147402,14.42,159.6,1.812,0.319,18.6,107.7256,19.06,19.98,55.57,0,110.7,13.28,19.87,121.6
"2010-05-27 00:31:30",147403,14.68,159.8,1.6,0.287,18.64,107.724,19.05,19.97,55.71,0,110.7,13.29,19.87,121.8
"2010-05-27 00:32:00",147404,14.3,160.1,1.064,0.66,18.49,107.7101,19.02,19.98,55.88,0,110.7,13.29,19.83,122.1
"2010-05-27 00:32:30",147405,13.06,155.2,5.107,0.405,18.36,107.6974,18.98,19.96,56.1,0,110.7,13.29,19.80,117.2
"2010-05-27 00:33:00",147406,13.37,157.9,1.648,1.07,18.5,107.6982,18.99,19.95,56.37,0,110.7,13.3,19.80,119.9
"2010-05-27 00:33:30",147407,14.37,161,2.188,0.542,18.65,107.6991,18.99,19.92,56.24,0,110.7,13.3,19.81,123.0
"2010-05-27 00:34:00",147408,13.59,162.9,2.996,0.518,18.72,107.7004,18.99,19.91,56.18,0,110.7,13.3,19.81,124.9
"2010-05-27 00:34:30",147409,13.16,156.2,2.809,0.453,18.42,107.6877,18.96,19.9,56.25,0,110.7,13.3,19.78,118.2
"2010-05-27 00:35:00",147410,13.64,157.3,1.829,0.479,18.44,107.6695,18.91,19.88,56.18,0,110.7,13.3,19.73,119.3
"2010-05-27 00:35:30",147411,13.88,155.6,3.376,0.499,18.44,107.6686,18.91,19.88,56.46,0,110.7,13.3,19.73,117.6
"2010-05-27 00:36:00",147412,12.95,154.2,1.846,0.492,18.38,107.6689,18.91,19.85,56.74,0,110.7,13.3,19.73,116.2
"2010-05-27 00:36:30",147413,13.05,152.8,3.691,0.411,18.56,107.643,18.84,19.82,56.85,0,110.7,13.3,19.66,114.8
"2010-05-27 00:37:00",147414,13.76,154.8,3.191,0.421,18.65,107.6351,18.82,19.8,56.99,0,110.7,13.3,19.64,116.8
"2010-05-27 00:37:30",147415,13.68,157.8,2.034,0.217,18.57,107.6348,18.82,19.78,56.87,0,110.7,13.3,19.64,119.8
"2010-05-27 00:38:00",147416,13.17,156.7,3.118,0.501,18.42,107.6264,18.8,19.77,56.88,0,110.7,13.3,19.62,118.7
"2010-05-27 00:38:30",147417,12.28,150.7,3.325,0.372,18.09,107.6028,18.74,19.74,57.04,0,110.7,13.3,19.56,112.7
"2010-05-27 00:39:00",147418,12.51,150.1,2.762,0.551,18.31,107.5974,18.73,19.73,57.16,0,110.6,13.3,19.54,112.1
"2010-05-27 00:39:30",147419,12.93,146.9,1.787,0.621,18.22,107.5695,18.66,19.68,57.28,0,110.6,13.3,19.47,108.9
"2010-05-27 00:40:00",147420,13.57,149.4,2.038,0.281,18.33,107.5656,18.65,19.65,57.3,0,110.6,13.3,19.46,111.4
"2010-05-27 00:40:30",147421,13.72,149.8,3.921,0.48,18.43,107.5405,18.58,19.62,57.44,0,110.6,13.3,19.40,111.8
"2010-05-27 00:41:00",147422,13.58,154.2,2.907,0.456,18.6,107.5338,18.56,19.59,57.55,0,110.6,13.3,19.38,116.2
"2010-05-27 00:41:30",147423,13.41,154.4,2.944,0.416,18.51,107.5335,18.56,19.56,57.5,0,110.6,13.3,19.38,116.4
"2010-05-27 00:42:00",147424,13.13,152.9,2.536,0.331,18.11,107.5146,18.51,19.55,57.38,0,110.6,13.3,19.33,114.9
"2010-05-27 00:42:30",147425,13.01,155.3,2.517,0.271,18.29,107.5,18.48,19.52,57.45,0,110.6,13.3,19.29,117.3
"2010-05-27 00:43:00",147426,12.89,154.1,3.124,0.294,18.19,107.5,18.48,19.49,57.45,0,110.6,13.3,19.29,116.1
"2010-05-27 00:43:30",147427,13.29,151.2,2.971,0.641,18.12,107.4975,18.47,19.47,57.41,0,110.6,13.3,19.29,113.2
"2010-05-27 00:44:00",147428,13.93,151.5,2.597,0.362,18.13,107.4741,18.41,19.45,57.59,0,110.6,13.3,19.23,113.5
"2010-05-27 00:44:30",147429,13.72,150.8,2.379,0.533,17.99,107.4662,18.39,19.43,57.52,0,110.6,13.3,19.21,112.8
"2010-05-27 00:45:00",147430,13.98,148.9,2.425,0.365,17.99,107.4657,18.39,19.42,57.56,0,110.6,13.3,19.21,110.9
"2010-05-27 00:45:30",147431,14.41,150.5,4.042,0.601,18.04,107.4448,18.34,19.37,57.79,0,110.6,13.3,19.15,112.5
"2010-05-27 00:46:00",147432,15.1,152.6,3.442,0.54,18.22,107.4333,18.31,19.35,57.92,0,110.6,13.3,19.12,114.6
"2010-05-27 00:46:30",147433,15.19,155,4.223,0.606,18.12,107.4324,18.3,19.36,58.11,0,110.6,13.3,19.12,117.0
"2010-05-27 00:47:00",147434,14.76,154.5,1.4,0.436,18.15,107.4324,18.3,19.33,58.38,0,110.6,13.3,19.12,116.5
"2010-05-27 00:47:30",147435,14.93,153.9,2.575,0.821,18.22,107.4282,18.29,19.32,58.47,0,110.6,13.3,19.11,115.9
"2010-05-27 00:48:00",147436,15.04,154.9,2.601,0.59,18.17,107.4234,18.28,19.29,58.53,0,110.6,13.3,19.10,116.9
"2010-05-27 00:48:30",147437,15.54,156.9,2.31,0.452,18.53,107.4229,18.28,19.27,58.63,0,110.6,13.3,19.10,118.9
"2010-05-27 00:49:00",147438,16.34,149.3,1.735,1.011,18.13,107.4122,18.25,19.27,58.9,0,110.6,13.3,19.07,111.3
"2010-05-27 00:49:30",147439,14.68,145.1,2.816,0.892,17.98,107.4017,18.23,19.25,58.91,0,110.6,13.3,19.04,107.1
"2010-05-27 00:50:00",147440,14.66,145.6,5.384,0.633,17.91,107.4015,18.22,19.24,58.93,0,110.6,13.31,19.04,107.6
"2010-05-27 00:50:30",147441,14.46,147.9,4.55,1.244,17.95,107.388,18.19,19.21,59.09,0,110.6,13.31,19.01,109.9
"2010-05-27 00:51:00",147442,16.4,149.1,2.05,0.61,17.89,107.3814,18.17,19.18,59.52,0,110.6,13.31,18.99,111.1
"2010-05-27 00:51:30",147443,17.01,150.4,1.505,0.389,18.08,107.383,18.18,19.18,59.91,0,110.6,13.31,18.99,112.4
"2010-05-27 00:52:00",147444,16.4,148.5,2.444,0.675,18.05,107.3793,18.17,19.17,60.17,0,110.6,13.31,18.98,110.5
"2010-05-27 00:52:30",147445,16.56,148.6,2.668,0.567,18.1,107.3579,18.11,19.14,60.28,0,110.6,13.31,18.93,110.6
"2010-05-27 00:53:00",147446,15.78,145.9,1.904,0.946,17.99,107.3549,18.11,19.11,60.15,0,110.6,13.31,18.92,107.9
"2010-05-27 00:53:30",147447,15.31,152.1,2.745,0.866,18.13,107.3331,18.05,19.08,60.54,0,110.6,13.31,18.86,114.1
"2010-05-27 00:54:00",147448,13.87,145,3.471,0.945,17.88,107.329,18.04,19.04,60.23,0,110.6,13.31,18.85,107.0
"2010-05-27 00:54:30",147449,13.76,147.4,4.443,0.892,18.07,107.3324,18.05,19.02,60.79,0,110.6,13.31,18.86,109.4
"2010-05-27 00:55:00",147450,13.69,146,2.432,0.403,17.96,107.3172,18.01,18.99,60.75,0,110.6,13.31,18.82,108.0
"2010-05-27 00:55:30",147451,14.07,147.6,2.643,0.418,18.18,107.3003,17.97,18.97,61.41,0,110.6,13.31,18.78,109.6
"2010-05-27 00:56:00",147452,14.44,153.2,3.447,0.822,18.32,107.2978,17.96,18.93,61.84,0,110.6,13.31,18.77,115.2
"2010-05-27 00:56:30",147453,15.77,157.4,3.346,0.78,18.49,107.2727,17.89,18.91,62.39,0,110.6,13.31,18.71,119.4
"2010-05-27 00:57:00",147454,15.74,155.6,2.031,0.465,18.54,107.2654,17.88,18.88,62.67,0,110.6,13.31,18.69,117.6
"2010-05-27 00:57:30",147455,15.22,153.2,1.658,0.409,18.7,107.2485,17.83,18.86,62.86,0,110.6,13.31,18.65,115.2
"2010-05-27 00:58:00",147456,14.31,157.4,2.562,0.456,18.65,107.235,17.8,18.84,62.96,0,110.6,13.31,18.61,119.4
"2010-05-27 00:58:30",147457,14.24,151.5,4.853,1.034,18.46,107.2322,17.79,18.8,63.09,0,110.6,13.32,18.60,113.5
"2010-05-27 00:59:00",147458,13.87,148.3,5.835,0.452,18.19,107.2319,17.79,18.79,63.47,0,110.6,13.32,18.60,110.3
"2010-05-27 00:59:30",147459,13.93,151.6,2.697,0.295,18.14,107.2141,17.74,18.76,63.66,0,110.6,13.31,18.56,113.6
"2010-05-27 01:00:00",147460,14.79,157.3,2.688,0.649,18.31,107.1984,17.7,18.73,63.78,0,110.6,13.31,18.52,119.3
"2010-05-27 01:00:30",147461,15.44,159.8,2.307,0.354,18.45,107.1961,17.7,18.72,63.84,0,110.6,13.31,18.51,121.8
"2010-05-27 01:01:00",147462,14.8,154.6,4.542,0.532,18.17,107.1744,17.64,18.68,64.17,0,110.6,13.31,18.46,116.6
"2010-05-27 01:01:30",147463,13.55,150.9,4.043,0.883,18.02,107.1632,17.61,18.66,64.46,0,110.6,13.31,18.43,112.9
"2010-05-27 01:02:00",147464,13.33,145,2.942,1.214,18.1,107.1336,17.54,18.62,64.69,0,110.6,13.31,18.35,107.0
"2010-05-27 01:02:30",147465,13.67,154.7,4.856,1.151,18.16,107.1235,17.51,18.57,64.89,0,110.6,13.31,18.32,116.7
"2010-05-27 01:03:00",147466,13.26,158.5,3.396,0.621,18.12,107.0978,17.45,18.54,65.25,0,110.6,13.31,18.26,120.5
"2010-05-27 01:03:30",147467,14.11,162.5,3.453,0.371,18.29,107.0976,17.45,18.51,65.52,0,110.6,13.32,18.26,124.5
"2010-05-27 01:04:00",147468,12.92,161.4,3.574,0.778,18.25,107.0803,17.4,18.48,65.59,0,110.6,13.31,18.21,123.4
"2010-05-27 01:04:30",147469,13.02,163,4.71,0.856,18.47,107.0716,17.38,18.45,65.35,0,110.6,13.32,18.19,125.0
"2010-05-27 01:05:00",147470,11.09,160.3,5.422,0.819,18.21,107.0762,17.39,18.42,65.9,0,110.6,13.32,18.20,122.3
"2010-05-27 01:05:30",147471,10.88,156.1,4.279,0.96,18.06,107.0616,17.35,18.39,65.89,0,110.6,13.32,18.17,118.1
"2010-05-27 01:06:00",147472,10.94,158.3,4.383,0.471,18.06,107.0511,17.33,18.37,66.4,0,110.6,13.32,18.14,120.3
"2010-05-27 01:06:30",147473,11.81,156.8,3.503,0.497,18.29,107.0429,17.31,18.32,66.42,0,110.6,13.33,18.12,118.8
"2010-05-27 01:07:00",147474,13.52,157.8,3.185,0.563,18.47,107.0273,17.27,18.28,65.53,0,110.5,13.33,18.08,119.8
"2010-05-27 01:07:30",147475,14.87,163.5,3.326,0.547,18.95,107.03,17.27,18.26,65.06,0,110.5,13.33,18.08,125.5
"2010-05-27 01:08:00",147476,13.98,165,3.038,0.442,18.69,107.0315,17.28,18.24,64.66,0,110.5,13.33,18.09,127.0
"2010-05-27 01:08:30",147477,12.38,157.5,5.972,0.664,17.98,107.0318,17.28,18.25,66.2,0,110.5,13.33,18.09,119.5
"2010-05-27 01:09:00",147478,12.59,159,4.069,0.774,18.22,107.0318,17.28,18.25,66.51,0,110.5,13.33,18.09,121.0
"2010-05-27 01:09:30",147479,13.74,158.7,2.483,0.498,18.12,107.0318,17.28,18.24,66.67,0,110.5,13.33,18.09,120.7
"2010-05-27 01:10:00",147480,13.06,159.5,2.569,0.873,18.27,107.0301,17.27,18.21,66.91,0,110.5,13.33,18.08,121.5
"2010-05-27 01:10:30",147481,13.98,163.4,1.755,0.358,18.58,107.0208,17.25,18.2,66.26,0,110.5,13.33,18.06,125.4
"2010-05-27 01:11:00",147482,13.34,164.6,2.402,0.59,18.55,107.0188,17.24,18.19,66.24,0,110.5,13.34,18.06,126.6
"2010-05-27 01:11:30",147483,12.55,164.5,2.248,0.373,18.5,107.027,17.26,18.18,66.08,0,110.5,13.34,18.08,126.5
"2010-05-27 01:12:00",147484,12.38,166,2.337,0.426,18.5,107.0273,17.27,18.19,65.95,0,110.5,13.34,18.08,128.0
"2010-05-27 01:12:30",147485,11.27,162.5,2.131,0.631,18.24,107.0298,17.27,18.19,66.16,0,110.5,13.34,18.08,124.5
"2010-05-27 01:13:00",147486,11.64,164.5,2.966,0.45,18.25,107.0197,17.25,18.18,66.78,0,110.5,13.34,18.06,126.5
"2010-05-27 01:13:30",147487,12.25,166.5,4.565,0.733,18.57,107.0129,17.23,18.19,66.4,0,110.5,13.34,18.04,128.5
"2010-05-27 01:14:00",147488,12.61,170.8,2.506,0.292,18.69,107.014,17.23,18.18,65.48,0,110.5,13.34,18.04,132.8
"2010-05-27 01:14:30",147489,11.91,165.3,4.891,0.457,18.41,107.0208,17.25,18.18,66.07,0,110.5,13.34,18.06,127.3
"2010-05-27 01:15:00",147490,12.59,162.5,5.097,1.106,18.6,107.0242,17.26,18.19,65.68,0,110.5,13.34,18.07,124.5
"2010-05-27 01:15:30",147491,15.05,161.7,3.994,1.259,18.77,107.0318,17.28,18.21,65.19,0,110.5,13.34,18.09,123.7
"2010-05-27 01:16:00",147492,15.17,162.6,4.302,1.174,18.69,107.0318,17.28,18.21,65.39,0,110.5,13.34,18.09,124.6
"2010-05-27 01:16:30",147493,14.16,165.7,2.448,0.908,19.03,107.0318,17.28,18.22,63.73,0,110.5,13.34,18.09,127.7
"2010-05-27 01:17:00",147494,15.56,160.3,1.63,0.671,18.87,107.0388,17.29,18.23,64.08,0,110.5,13.34,18.11,122.3
"2010-05-27 01:17:30",147495,15.74,163.2,2.538,0.422,19.32,107.0622,17.35,18.24,62.81,0,110.5,13.34,18.17,125.2
"2010-05-27 01:18:00",147496,14.9,171.8,2.604,0.523,19.22,107.0656,17.36,18.26,62.37,0,110.5,13.33,18.18,133.8
"2010-05-27 01:18:30",147497,13.6,172.5,2.194,0.682,19.22,107.0966,17.44,18.32,61.51,0,110.5,13.33,18.26,134.5
"2010-05-27 01:19:00",147498,13.22,170.6,4.496,0.487,19.13,107.1293,17.53,18.37,61.3,0,110.5,13.33,18.34,132.6
"2010-05-27 01:19:30",147499,12.84,166.7,2.907,0.742,18.76,107.156,17.6,18.42,62.38,0,110.5,13.33,18.41,128.7
"2010-05-27 01:20:00",147500,13.76,165.3,2.225,0.726,18.51,107.167,17.62,18.45,63.65,0,110.5,13.33,18.44,127.3
"2010-05-27 01:20:30",147501,15.42,158.3,7.586,1.375,18.61,107.167,17.62,18.52,64.01,0,110.5,13.33,18.44,120.3
"2010-05-27 01:21:00",147502,15.63,164.4,3.546,0.961,18.99,107.1735,17.64,18.51,62.74,0,110.5,13.33,18.45,126.4
"2010-05-27 01:21:30",147503,15.73,167.7,2.673,0.939,19.27,107.1971,17.7,18.54,61.87,0,110.5,13.33,18.51,129.7
"2010-05-27 01:22:00",147504,14.01,167.2,2.508,0.92,19.25,107.2008,17.71,18.56,61.18,0,110.5,13.34,18.52,129.2
"2010-05-27 01:22:30",147505,14.6,164.3,2.486,0.635,18.79,107.2121,17.74,18.6,61.99,0,110.5,13.34,18.55,126.3
"2010-05-27 01:23:00",147506,15.04,163.7,2.428,0.622,18.94,107.2301,17.79,18.64,62.42,0,110.5,13.34,18.60,125.7
"2010-05-27 01:23:30",147507,13.64,170.1,1.633,1.307,19.05,107.2346,17.8,18.65,61.78,0,110.5,13.34,18.61,132.1
"2010-05-27 01:24:00",147508,12.92,166.7,3.265,0.554,18.72,107.2346,17.8,18.69,62.65,0,110.5,13.34,18.61,128.7
"2010-05-27 01:24:30",147509,12.55,162.5,2.734,0.634,18.61,107.2352,17.8,18.72,62.75,0,110.5,13.34,18.61,124.5
"2010-05-27 01:25:00",147510,12.01,165.7,2.372,0.444,18.63,107.2349,17.8,18.72,63.09,0,110.5,13.34,18.61,127.7
"2010-05-27 01:25:30",147511,12.8,166.2,2.324,0.848,18.67,107.2349,17.8,18.73,62.87,0,110.5,13.34,18.61,128.2
"2010-05-27 01:26:00",147512,14.75,164.1,2.966,0.663,18.56,107.2349,17.8,18.73,63.56,0,110.5,13.34,18.61,126.1
"2010-05-27 01:26:30",147513,15.17,164.5,1.976,0.558,18.62,107.2346,17.8,18.73,63.49,0,110.5,13.34,18.61,126.5
"2010-05-27 01:27:00",147514,16.06,165.4,1.713,0.654,18.74,107.2352,17.8,18.74,63.26,0,110.5,13.34,18.61,127.4
"2010-05-27 01:27:30",147515,16.08,165.1,2.768,0.61,18.84,107.2358,17.8,18.75,62.75,0,110.5,13.34,18.61,127.1
"2010-05-27 01:28:00",147516,15.59,166.6,2.917,1.278,18.79,107.2364,17.8,18.74,62.91,0,110.5,13.34,18.62,128.6
"2010-05-27 01:28:30",147517,16.08,166.8,1.825,0.572,18.49,107.2364,17.8,18.75,63,0,110.5,13.34,18.62,128.8
"2010-05-27 01:29:00",147518,15.79,165.4,1.193,0.431,18.28,107.2379,17.81,18.75,63.36,0,110.5,13.34,18.62,127.4
"2010-05-27 01:29:30",147519,15.57,163.3,1.524,0.258,18.13,107.2347,17.8,18.75,63.69,0,110.5,13.34,18.61,125.3
"2010-05-27 01:30:00",147520,15.59,159.6,2.478,0.625,18.31,107.2159,17.75,18.72,62.03,0,110.5,13.35,18.56,121.6
"2010-05-27 01:30:30",147521,15.79,162.7,2.475,0.466,18.12,107.215,17.75,18.72,61.42,0,110.5,13.35,18.56,124.7
"2010-05-27 01:31:00",147522,15.48,162.8,1.411,0.446,17.8,107.202,17.71,18.7,62.26,0,110.5,13.35,18.53,124.8
"2010-05-27 01:31:30",147523,17.15,160.2,1.494,0.628,18.4,107.189,17.68,18.67,61.52,0,110.5,13.35,18.49,122.2
"2010-05-27 01:32:00",147524,16.75,162.1,2.132,0.502,18.6,107.1858,17.67,18.65,60.78,0,110.5,13.35,18.49,124.1
"2010-05-27 01:32:30",147525,16.22,163.1,3.58,0.63,18.38,107.1648,17.62,18.61,61.1,0,110.5,13.35,18.43,125.1
"2010-05-27 01:33:00",147526,14.46,163.6,3.939,1.106,18.58,107.1634,17.61,18.59,61.88,0,110.5,13.35,18.43,125.6
"2010-05-27 01:33:30",147527,13.17,168.9,3.568,0.947,18.69,107.1515,17.58,18.56,62.05,0,110.5,13.34,18.40,130.9
"2010-05-27 01:34:00",147528,11.85,174.6,7.082,0.495,18.56,107.1308,17.53,18.54,62.47,0,110.5,13.34,18.34,136.6
"2010-05-27 01:34:30",147529,11.9,174,4.287,0.824,17.95,107.1305,17.53,18.52,62.85,0,110.5,13.34,18.34,136.0
"2010-05-27 01:35:00",147530,14.7,171.8,5.511,1.777,17.89,107.132,17.53,18.5,62.64,0,110.5,13.34,18.35,133.8
"2010-05-27 01:35:30",147531,11.69,178.4,4.333,1.069,18.42,107.1212,17.51,18.48,62.92,0,110.5,13.34,18.32,140.4
"2010-05-27 01:36:00",147532,14.23,172.8,3.394,0.95,17.89,107.1006,17.45,18.45,62.66,0,110.5,13.34,18.27,134.8
"2010-05-27 01:36:30",147533,12.41,173.3,3.737,0.62,18.19,107.099,17.45,18.45,63.1,0,110.5,13.34,18.26,135.3
"2010-05-27 01:37:00",147534,11.69,179,6.359,0.841,18.23,107.0961,17.44,18.42,63.26,0,110.5,13.34,18.25,141.0
"2010-05-27 01:37:30",147535,13.46,171,4.894,1.377,17.73,107.0964,17.44,18.41,62.77,0,110.5,13.34,18.26,133.0
"2010-05-27 01:38:00",147536,13.68,176.2,2.906,0.918,17.82,107.0951,17.44,18.39,62.93,0,110.5,13.34,18.25,138.2
"2010-05-27 01:38:30",147537,10.7,179.9,2.911,0.923,18.12,107.0704,17.38,18.36,63.44,0,110.5,13.35,18.19,141.9
"2010-05-27 01:39:00",147538,9.85,183.4,3.427,0.542,18.23,107.0653,17.36,18.34,63.73,0,110.5,13.35,18.18,145.4
"2010-05-27 01:39:30",147539,10.32,174.4,4.099,0.592,17.84,107.0677,17.37,18.3,63.6,0,110.5,13.35,18.18,136.4
"2010-05-27 01:40:00",147540,10.46,180,3.457,1.516,18.07,107.0627,17.36,18.32,63.61,0,110.5,13.35,18.17,142.0
"2010-05-27 01:40:30",147541,11.04,171.4,6.086,0.565,17.91,107.0432,17.31,18.29,63.65,0,110.5,13.35,18.12,133.4
"2010-05-27 01:41:00",147542,11.69,174.6,5.609,0.769,17.89,107.0296,17.27,18.25,63.72,0,110.5,13.35,18.08,136.6
"2010-05-27 01:41:30",147543,11.3,173.7,3.317,0.825,17.94,107.0323,17.28,18.24,63.79,0,110.5,13.35,18.09,135.7
"2010-05-27 01:42:00",147544,13.1,173.9,1.834,0.964,17.65,107.0311,17.28,18.22,63.94,0,110.5,13.35,18.09,135.9
"2010-05-27 01:42:30",147545,13.08,177.7,3.159,0.547,17.78,107.0332,17.28,18.22,64.19,0,110.5,13.35,18.09,139.7
"2010-05-27 01:43:00",147546,12.32,177.5,3.269,0.864,17.99,107.0229,17.25,18.21,63.94,0,110.5,13.35,18.07,139.5
"2010-05-27 01:43:30",147547,13.46,169.9,3.577,0.638,17.85,107.004,17.21,18.19,63.91,0,110.5,13.35,18.02,131.9
"2010-05-27 01:44:00",147548,13.2,169.5,5.147,0.86,17.46,107.0003,17.2,18.17,64.51,0,110.5,13.35,18.01,131.5
"2010-05-27 01:44:30",147549,12.47,177.4,3.242,0.675,17.71,107.0003,17.2,18.15,64.75,0,110.5,13.35,18.01,139.4
"2010-05-27 01:45:00",147550,12.59,177.6,3.025,0.85,17.82,106.991,17.17,18.14,64.84,0,110.5,13.35,17.98,139.6
"2010-05-27 01:45:30",147551,12.55,176.1,1.594,0.507,17.74,106.9682,17.11,18.12,64.96,0,110.5,13.35,17.93,138.1
"2010-05-27 01:46:00",147552,12.78,174.6,2.866,0.678,18.07,106.9665,17.11,18.09,64.82,0,110.5,13.35,17.92,136.6
"2010-05-27 01:46:30",147553,11.94,176.5,3.344,0.749,17.99,106.9662,17.11,18.09,64.65,0,110.5,13.35,17.92,138.5
"2010-05-27 01:47:00",147554,13.22,175.7,2.68,0.582,17.96,106.9513,17.07,18.07,64.87,0,110.5,13.35,17.88,137.7
"2010-05-27 01:47:30",147555,12.97,178.7,2.12,0.638,17.81,106.9352,17.03,18.03,65.22,0,110.5,13.35,17.84,140.7